Cumberland, WI

10:02 PM CDT on June 25, 2017 (GMT -0500)
Cumberland Municipal

Weather History for KUBE - October, 2013

Change the Weather History Date:

Thursday, October 24, 2013

  Actual Average (KRPD) Record (KRPD)
Temperature  
Mean Temperature 34 °F -  
Max Temperature 37 °F 50 °F 68 °F (1998)
Min Temperature 30 °F 35 °F 21 °F (2006)
Degree Days  
Heating Degree Days 32    
Moisture  
Dew Point 27 °F    
Average Humidity 75    
Maximum Humidity 87    
Minimum Humidity 65    
Precipitation  
Precipitation 0.00 in - - ()
Sea Level Pressure  
Sea Level Pressure 30.17 in    
Wind  
Wind Speed 8 mph (WNW)    
Max Wind Speed 12 mph    
Max Gust Speed 17 mph    
Visibility 10 miles    
Events Snow    
Averages and records for this station are not official NWS values.
T = Trace of Precipitation, MM = Missing Value Source: NWS Daily Summary

Daily Weather History Graph

Daily Weather History Graph

Search for Another Location

Airport or City:

Trip Planner

Search our weather history database for the weather conditions in past years. The results will help you decide how hot, cold, wet, or windy it might be!

Date:

Astronomy

Oct. 24, 2013 Rise Set
Actual Time 7:36 AM CDT 6:06 PM CDT
Civil Twilight 7:06 AM CDT 6:37 PM CDT
Nautical Twilight 6:31 AM CDT 7:11 PM CDT
Astronomical Twilight 5:57 AM CDT 7:45 PM CDT
Moon 10:25 PM CDT (10/24) 12:44 PM CDT (10/24)
Length of Visible Light 11h 30m
Length of Day
10h 30m
Waning Gibbous, 71% of the Moon is Illuminated
Oct 24
Waning Gibbous
Oct 26
Last Quarter
Nov 3
New
Nov 9
First Quarter
Nov 17
Full

Hourly Weather History & Observations

Time (CDT) Temp. Windchill Dew Point Humidity Pressure Visibility Wind Dir Wind Speed Gust Speed Precip Events Conditions
12:15 AM 32.0 °F 25.6 °F 23.0 °F 69% 30.05 in 10.0 mi WNW 6.9 mph - N/A   Overcast
12:35 AM 32.0 °F 23.6 °F 23.0 °F 69% 30.05 in 10.0 mi NW 10.4 mph - N/A   Overcast
12:55 AM 32.0 °F 25.6 °F 23.0 °F 69% 30.05 in 10.0 mi WNW 6.9 mph - N/A   Overcast
1:15 AM 32.0 °F 24.2 °F 23.0 °F 69% 30.05 in 10.0 mi NW 9.2 mph - N/A   Overcast
1:35 AM 30.2 °F 21.3 °F 23.0 °F 75% 30.05 in 10.0 mi NW 10.4 mph - N/A   Overcast
1:55 AM 30.2 °F 20.8 °F 23.0 °F 75% 30.06 in 10.0 mi NW 11.5 mph - N/A   Overcast
2:15 AM 30.2 °F 21.9 °F 23.0 °F 75% 30.06 in 10.0 mi WNW 9.2 mph - N/A   Overcast
2:35 AM 30.2 °F 23.4 °F 23.0 °F 75% 30.07 in 10.0 mi WNW 6.9 mph - N/A   Overcast
2:55 AM 30.2 °F 21.3 °F 23.0 °F 75% 30.07 in 10.0 mi WNW 10.4 mph - N/A   Overcast
3:15 AM 30.2 °F 21.9 °F 23.0 °F 75% 30.07 in 10.0 mi NW 9.2 mph - N/A   Overcast
3:35 AM 32.0 °F 23.0 °F 23.0 °F 69% 30.07 in 10.0 mi NW 11.5 mph 16.1 mph N/A   Overcast
3:55 AM 32.0 °F 24.2 °F 24.8 °F 75% 30.08 in 10.0 mi NW 9.2 mph - N/A   Overcast
4:15 AM 32.0 °F 23.0 °F 24.8 °F 75% 30.08 in 10.0 mi NW 11.5 mph - N/A   Overcast
4:35 AM 32.0 °F 23.0 °F 24.8 °F 75% 30.08 in 10.0 mi NW 11.5 mph 16.1 mph N/A   Overcast
4:55 AM 32.0 °F 23.6 °F 24.8 °F 75% 30.09 in 10.0 mi NW 10.4 mph - N/A   Overcast
5:15 AM 32.0 °F 23.0 °F 24.8 °F 75% 30.09 in 10.0 mi NW 11.5 mph - N/A   Overcast
5:35 AM 32.0 °F 24.8 °F 24.8 °F 75% 30.10 in 10.0 mi NW 8.1 mph - N/A   Overcast
5:55 AM 32.0 °F 24.2 °F 24.8 °F 75% 30.10 in 10.0 mi NW 9.2 mph - N/A   Overcast
6:15 AM 32.0 °F 26.4 °F 26.6 °F 80% 30.11 in 10.0 mi NW 5.8 mph - N/A   Overcast
6:35 AM 32.0 °F 24.8 °F 26.6 °F 80% 30.11 in 10.0 mi NW 8.1 mph - N/A   Overcast
6:55 AM 32.0 °F 25.6 °F 26.6 °F 80% 30.12 in 10.0 mi WNW 6.9 mph - N/A   Overcast
7:15 AM 30.2 °F 24.3 °F 26.6 °F 86% 30.13 in 10.0 mi NW 5.8 mph - N/A   Overcast
7:35 AM 30.2 °F 24.3 °F 26.6 °F 86% 30.13 in 10.0 mi NW 5.8 mph - N/A   Mostly Cloudy
7:55 AM 30.2 °F 24.3 °F 26.6 °F 86% 30.13 in 10.0 mi WNW 5.8 mph - N/A   Mostly Cloudy
8:15 AM 32.0 °F 24.8 °F 26.6 °F 80% 30.14 in 10.0 mi WNW 8.1 mph - N/A   Overcast
8:35 AM 32.0 °F 24.8 °F 26.6 °F 80% 30.15 in 10.0 mi WNW 8.1 mph - N/A   Overcast
8:55 AM 32.0 °F 25.6 °F 26.6 °F 80% 30.15 in 10.0 mi WNW 6.9 mph - N/A   Overcast
9:15 AM 32.0 °F 24.8 °F 26.6 °F 80% 30.16 in 10.0 mi WNW 8.1 mph - N/A   Overcast
9:35 AM 32.0 °F 26.4 °F 26.6 °F 80% 30.16 in 10.0 mi WNW 5.8 mph - N/A   Overcast
9:55 AM 33.8 °F 26.4 °F 28.4 °F 81% 30.16 in 10.0 mi WNW 9.2 mph - N/A   Overcast
10:15 AM 33.8 °F 25.3 °F 28.4 °F 81% 30.17 in 10.0 mi NW 11.5 mph - N/A   Overcast
10:35 AM 33.8 °F 25.8 °F 28.4 °F 81% 30.17 in 10.0 mi NW 10.4 mph 16.1 mph N/A   Mostly Cloudy
10:55 AM 35.6 °F 27.5 °F 26.6 °F 70% 30.17 in 10.0 mi NW 11.5 mph - N/A   Scattered Clouds
11:15 AM 37.4 °F 30.8 °F 26.6 °F 65% 30.18 in 10.0 mi NW 9.2 mph 17.3 mph N/A   Scattered Clouds
11:35 AM 37.4 °F 30.3 °F 26.6 °F 65% 30.18 in 10.0 mi WNW 10.4 mph 16.1 mph N/A   Mostly Cloudy
11:55 AM 35.6 °F 28.0 °F 26.6 °F 70% 30.18 in 10.0 mi NW 10.4 mph 17.3 mph N/A   Overcast
12:15 PM 37.4 °F 30.3 °F 26.6 °F 65% 30.19 in 10.0 mi WNW 10.4 mph 17.3 mph N/A   Overcast
12:35 PM 35.6 °F 27.5 °F 26.6 °F 70% 30.19 in 10.0 mi WNW 11.5 mph - N/A   Overcast
12:55 PM 33.8 °F 27.0 °F 30.2 °F 87% 30.19 in 4.0 mi NW 8.1 mph - N/A Snow Light Snow
1:15 PM 35.6 °F 30.7 °F 30.2 °F 81% 30.18 in 7.0 mi NW 5.8 mph - N/A   Mostly Cloudy
1:35 PM 35.6 °F 28.0 °F 28.4 °F 75% 30.19 in 10.0 mi WNW 10.4 mph 17.3 mph N/A   Overcast
1:55 PM 35.6 °F 28.6 °F 28.4 °F 75% 30.18 in 10.0 mi WNW 9.2 mph - N/A   Overcast
2:15 PM 37.4 °F 32.8 °F 28.4 °F 70% 30.18 in 10.0 mi WNW 5.8 mph - N/A   Overcast
2:35 PM 37.4 °F 30.8 °F 28.4 °F 70% 30.18 in 10.0 mi NW 9.2 mph - N/A   Overcast
2:55 PM 37.4 °F 31.4 °F 28.4 °F 70% 30.19 in 10.0 mi WNW 8.1 mph - N/A   Overcast
3:15 PM 37.4 °F 30.8 °F 28.4 °F 70% 30.19 in 10.0 mi NW 9.2 mph - N/A   Overcast
3:35 PM 37.4 °F 29.8 °F 28.4 °F 70% 30.19 in 10.0 mi NW 11.5 mph - N/A   Overcast
3:55 PM 37.4 °F 30.3 °F 28.4 °F 70% 30.20 in 10.0 mi WNW 10.4 mph - N/A   Overcast
4:15 PM 37.4 °F 30.3 °F 28.4 °F 70% 30.20 in 10.0 mi WNW 10.4 mph 16.1 mph N/A   Overcast
4:35 PM 37.4 °F 29.8 °F 28.4 °F 70% 30.20 in 10.0 mi NW 11.5 mph - N/A   Overcast
4:55 PM 37.4 °F 29.8 °F 28.4 °F 70% 30.20 in 10.0 mi WNW 11.5 mph 17.3 mph N/A   Overcast
5:15 PM 37.4 °F 30.3 °F 26.6 °F 65% 30.21 in 10.0 mi WNW 10.4 mph - N/A   Overcast
5:35 PM 35.6 °F 29.2 °F 28.4 °F 75% 30.22 in 10.0 mi WNW 8.1 mph - N/A   Overcast
5:55 PM 35.6 °F 28.6 °F 28.4 °F 75% 30.22 in 10.0 mi WNW 9.2 mph - N/A   Overcast
6:15 PM 35.6 °F 28.6 °F 28.4 °F 75% 30.23 in 10.0 mi West 9.2 mph - N/A   Overcast
6:35 PM 35.6 °F 28.0 °F 28.4 °F 75% 30.23 in 10.0 mi WNW 10.4 mph - N/A   Overcast
6:55 PM 35.6 °F 29.9 °F 28.4 °F 75% 30.23 in 10.0 mi WNW 6.9 mph - N/A   Overcast
7:15 PM 35.6 °F 31.7 °F 28.4 °F 75% 30.23 in 10.0 mi WNW 4.6 mph - N/A   Overcast
7:35 PM 35.6 °F 31.7 °F 28.4 °F 75% 30.24 in 10.0 mi West 4.6 mph - N/A   Overcast
7:55 PM 35.6 °F 31.7 °F 28.4 °F 75% 30.24 in 10.0 mi West 4.6 mph - N/A   Overcast
8:15 PM 35.6 °F 31.7 °F 28.4 °F 75% 30.25 in 10.0 mi West 4.6 mph - N/A   Overcast
8:35 PM 35.6 °F 30.7 °F 28.4 °F 75% 30.24 in 10.0 mi West 5.8 mph - N/A   Overcast
8:55 PM 35.6 °F 31.7 °F 28.4 °F 75% 30.24 in 10.0 mi West 4.6 mph - N/A   Overcast
9:15 PM 33.8 °F 29.6 °F 28.4 °F 81% 30.24 in 10.0 mi West 4.6 mph - N/A   Overcast
9:35 PM 33.8 °F 29.6 °F 28.4 °F 81% 30.25 in 10.0 mi West 4.6 mph - N/A   Overcast
9:55 PM 33.8 °F 29.6 °F 28.4 °F 81% 30.25 in 10.0 mi West 4.6 mph - N/A   Overcast
10:15 PM 33.8 °F 29.6 °F 28.4 °F 81% 30.25 in 10.0 mi West 4.6 mph - N/A   Overcast
10:35 PM 33.8 °F 29.6 °F 28.4 °F 81% 30.26 in 10.0 mi West 4.6 mph - N/A   Overcast
10:55 PM 33.8 °F 29.6 °F 28.4 °F 81% 30.26 in 10.0 mi West 4.6 mph - N/A   Overcast
11:15 PM 33.8 °F 29.6 °F 28.4 °F 81% 30.26 in 10.0 mi West 4.6 mph - N/A   Overcast
11:35 PM 33.8 °F 28.6 °F 28.4 °F 81% 30.26 in 10.0 mi West 5.8 mph - N/A   Overcast
11:55 PM 33.8 °F 30.8 °F 28.4 °F 81% 30.27 in 10.0 mi WNW 3.5 mph - N/A   Overcast